Location: Home
(42.5358°N, 72.7383°W)
Time: 21:44:13
(UTC-05:00)

Altair - Pass Details

Date: 08 December 2021
Orbit: 1501 x 1683 km, 47.2° (Epoch: 26 January)

Event Time Altitude Azimuth Distance (km) Brightness Sun altitude
Rises 18:43:10 0° 290° (WNW) 4,717 11.0 -26.0°
Reaches altitude 10° 18:46:16 10° 292° (WNW) 3,712 10.3 -26.5°
Maximum altitude 18:55:38 83° 21° (NNE) 1,521 7.3 -28.3°
Enters shadow 18:58:10 54° 101° (ESE) 1,775 7.4 -28.7°
